Wetbulb
65.73 66.63 66.99 68.02 69.17 69.92 70.27 70.79 71.46 71.91 72.48 72.20 72.19 71.29 70.66 71.85 70.42 68.41 67.78 67.81 67.88 67.87 69.52 70.54 72.59 73.54 74.27 74.52 74.57 75.15 75.15 74.40 73.27
65.61 66.87 67.60 68.26 69.21 70.64 71.44 73.22 73.07 72.48 72.91 73.53 72.79 71.59 72.43 70.41 68.05 70.29 69.08 69.51 69.87 69.87 71.71 72.65 72.81 72.96 73.51 74.45 73.82 73.66 73.89 71.87 72.81
65.89 66.99 67.04 67.51 67.90 69.22 70.95 74.20 74.94 74.35 74.61 74.10 73.25 72.28 72.38 71.76 71.56 71.96 71.68 70.23 69.93 72.30 72.79 72.29 71.73 72.36 72.33 72.25 71.99 72.42 71.84 71.17 70.21
65.86 66.96 66.75 66.98 68.35 71.59 73.83 74.33 73.60 72.82 73.11 73.40 72.44 72.28 72.12 71.94 71.62 70.99 70.78 71.38 71.88 73.20 72.73 72.20 72.04 71.41 70.88 70.99 71.02 70.94 71.06 69.82 69.89
66.58 67.29 67.93 67.72 68.62 72.09 71.27 71.64 72.78 72.65 72.75 72.38 72.63 72.08 71.79 71.04 71.33 71.14 70.69 71.26 71.86 72.40 71.49 71.52 71.25 71.05 70.46 70.40 70.65 70.87 70.48 70.36 70.27
66.73 67.34 67.80 68.30 69.88 71.26 70.31 71.81 71.91 71.63 71.60 70.84 71.25 71.42 70.92 70.75 70.71 70.28 69.36 69.81 70.98 71.37 71.22 71.17 70.68 69.75 69.31 69.19 69.10 69.03 68.89 69.08 67.61
67.02 67.13 68.56 69.43 70.08 69.74 70.97 71.32 70.39 69.87 69.83 70.33 70.60 70.90 70.75 70.53 70.66 70.73 70.21 70.07 70.14 70.24 70.39 69.70 68.71 68.11 67.33 66.52 65.71 65.51 66.14 66.23 64.94
66.43 67.84 68.71 69.45 69.36 69.90 70.42 69.34 68.87 69.07 69.73 70.49 70.82 70.51 70.04 69.59 69.69 69.65 68.91 68.06 67.64 67.85 69.31 68.91 67.99 66.99 65.75 64.91 63.54 62.28 63.08 62.94 61.56
66.25 67.88 68.84 70.16 71.10 71.00 70.09 69.09 68.41 68.87 69.97 70.41 70.46 69.73 68.74 68.81 68.36 67.65 66.96 66.09 65.60 65.50 65.29 65.91 66.43 65.04 64.17 63.11 61.01 59.49 59.12 59.53 58.57
66.87 68.12 69.36 70.53 70.85 70.77 70.61 69.33 69.59 69.26 70.04 70.27 69.64 69.06 68.20 67.92 67.28 66.45 65.48 64.46 63.75 63.42 62.71 63.27 62.54 61.96 62.30 61.73 61.27 58.95 57.70 56.73 57.59
67.05 68.68 69.98 70.89 71.26 71.29 71.37 70.37 70.45 70.61 70.35 69.59 68.83 68.20 67.92 67.37 66.64 65.29 64.31 62.98 61.73 61.69 61.83 61.00 61.35 60.31 60.68 61.35 61.15 58.42 57.49 56.16 58.15
68.13 70.12 71.02 71.95 71.86 71.29 70.64 69.84 70.96 70.24 69.75 69.53 68.53 67.82 67.42 66.87 66.09 64.46 62.83 60.99 60.36 60.24 60.53 59.76 60.19 60.95 60.38 59.82 60.39 56.14 57.64 57.04 58.85
69.07 71.02 71.91 71.82 71.54 70.99 70.06 70.24 70.93 70.16 69.43 68.79 67.57 67.27 66.36 65.93 65.23 63.23 61.12 60.40 59.70 59.66 59.82 59.58 59.81 60.17 60.57 53.95 59.16 54.28 56.52 57.59 59.10
71.08 71.82 71.69 71.81 71.46 70.61 70.43 70.78 70.84 69.75 69.22 68.02 66.61 65.11 64.96 64.00 63.14 61.45 60.05 59.72 59.59 59.50 59.38 60.12 59.78 58.40 57.80 57.41 55.03 57.92 53.84 53.25 58.20
71.11 71.15 71.22 71.78 71.00 70.46 70.63 70.93 70.51 69.15 68.25 65.72 63.99 63.92 62.71 62.25 61.82 59.42 59.15 59.70 59.37 59.37 59.97 59.68 59.90 58.26 56.69 57.22 57.74 53.87 52.15 51.69 51.77
70.99 71.43 71.39 71.57 70.67 67.80 69.19 70.40 70.14 67.88 64.05 63.21 63.20 61.43 60.16 60.48 60.54 59.80 59.91 60.11 59.79 59.01 60.24 58.53 58.23 57.32 56.88 56.67 56.53 56.75 49.67 49.92 50.26
70.20 71.10 70.64 70.61 68.19 66.16 66.40 67.67 68.78 65.82 64.43 63.57 62.40 60.70 59.82 59.62 59.28 58.33 58.86 58.46 58.26 58.03 57.33 56.93 55.93 55.68 55.11 55.53 55.68 55.13 55.00 54.40 53.98
69.53 69.28 67.64 67.81 66.40 65.73 64.71 65.65 64.47 64.52 63.20 62.69 61.08 59.85 58.59 57.83 56.56 56.71 56.26 55.81 54.62 55.63 56.67 54.54 55.78 55.91 54.88 53.29 52.36 52.73 50.17 49.92 52.65
66.16 65.22 65.54 65.73 64.02 63.27 60.93 61.06 61.94 63.25 62.62 61.73 59.52 57.35 56.33 55.36 56.03 56.03 55.93 55.63 54.59 46.88 46.72 46.56 46.08 45.81 49.52 54.01 48.20 45.58 44.14 42.75 42.80
62.18 64.31 64.05 63.31 63.26 62.34 59.05 58.56 58.94 60.27 60.34 59.77 58.34 56.80 56.73 55.70 56.08 57.04 56.84 55.81 55.73 54.90 51.78 47.56 45.12 43.96 44.04 43.82 44.83 43.58 42.14 41.57 41.45
MSLP
1004.32 1004.59 1004.94 1005.36 1005.76 1006.26 1006.73 1007.32 1007.85 1008.44 1009.41 1010.11 1011.03 1011.81 1011.65 1011.43 1010.70 1011.44 1012.34 1013.07 1013.27 1013.80 1014.16 1014.05 1013.88 1013.47 1013.21 1012.91 1012.83 1012.57 1012.92 1013.08 1013.24
1003.95 1004.65 1005.30 1005.64 1005.90 1006.46 1006.95 1007.21 1007.61 1008.04 1008.85 1009.74 1010.61 1011.14 1010.90 1010.75 1011.06 1011.16 1012.29 1012.98 1013.34 1013.71 1013.87 1013.93 1013.61 1013.40 1013.03 1012.93 1012.80 1012.93 1013.07 1013.42 1013.29
1003.97 1004.87 1005.43 1005.83 1006.25 1006.70 1007.25 1007.41 1007.86 1008.22 1008.84 1009.32 1010.00 1010.51 1010.55 1011.10 1011.51 1012.01 1012.52 1012.68 1013.03 1013.23 1013.36 1013.40 1013.65 1013.55 1013.42 1013.40 1013.34 1013.39 1013.39 1013.53 1013.55
1003.91 1004.78 1005.43 1006.05 1006.65 1007.13 1007.60 1008.00 1008.53 1008.99 1009.56 1009.79 1010.23 1010.87 1011.38 1011.63 1012.01 1012.27 1012.44 1012.81 1013.25 1013.39 1013.65 1013.54 1013.32 1013.45 1013.60 1013.62 1013.56 1013.75 1013.57 1013.67 1013.60
1003.90 1004.70 1005.52 1006.11 1006.76 1007.63 1008.41 1008.65 1009.02 1009.51 1009.86 1010.14 1010.57 1011.08 1011.49 1011.84 1012.18 1012.45 1012.55 1012.78 1013.02 1013.26 1013.43 1013.69 1013.77 1013.66 1013.67 1013.80 1013.80 1013.80 1013.75 1013.53 1013.67
1003.97 1004.92 1005.76 1006.21 1006.92 1007.80 1008.66 1008.84 1009.54 1010.08 1010.34 1010.45 1010.53 1010.80 1011.33 1011.94 1012.28 1012.59 1012.84 1013.01 1013.24 1013.62 1014.00 1014.16 1014.04 1013.85 1013.78 1013.85 1013.99 1014.05 1014.18 1014.14 1014.30
1004.16 1004.94 1005.85 1006.43 1007.21 1008.21 1008.87 1009.39 1010.14 1010.37 1010.60 1010.78 1010.91 1011.19 1011.78 1012.28 1012.68 1012.94 1013.11 1013.49 1013.66 1013.82 1013.92 1013.93 1014.00 1014.01 1014.29 1014.37 1014.44 1014.50 1014.50 1014.48 1014.67
1004.09 1004.84 1005.67 1006.44 1007.21 1007.90 1008.62 1009.34 1010.09 1010.60 1010.79 1010.90 1011.29 1011.86 1012.28 1012.57 1012.90 1013.16 1013.49 1013.78 1014.06 1013.99 1013.97 1014.09 1014.35 1014.42 1014.57 1014.60 1014.58 1014.67 1014.82 1014.88 1015.06
1003.39 1004.40 1005.16 1006.15 1006.91 1007.57 1008.36 1009.25 1009.90 1010.34 1010.89 1011.32 1011.77 1012.37 1012.73 1013.09 1013.66 1013.91 1014.18 1014.38 1014.50 1014.55 1014.70 1014.64 1014.67 1014.85 1014.87 1014.82 1014.80 1015.24 1015.22 1015.20 1015.36
1002.76 1003.58 1004.34 1005.52 1006.43 1007.09 1007.93 1008.80 1009.54 1010.21 1010.91 1011.72 1012.28 1012.74 1013.19 1013.68 1014.22 1014.38 1014.35 1014.54 1014.74 1014.90 1015.10 1015.23 1015.37 1015.43 1015.26 1015.42 1015.44 1015.62 1015.65 1015.70 1015.61
1001.99 1002.90 1003.73 1004.77 1005.72 1006.81 1007.86 1008.72 1009.32 1010.30 1010.91 1011.70 1012.43 1013.05 1013.62 1014.15 1014.52 1014.68 1014.55 1014.96 1015.09 1015.15 1015.46 1015.53 1015.65 1015.75 1015.76 1015.65 1015.70 1015.88 1015.89 1015.92 1015.84
1000.98 1002.02 1003.09 1004.30 1005.47 1006.44 1007.59 1008.59 1009.37 1010.17 1010.87 1011.76 1012.37 1012.91 1013.73 1014.10 1014.14 1014.20 1014.50 1015.15 1015.30 1015.49 1015.65 1015.73 1015.97 1016.11 1016.09 1015.98 1015.93 1016.09 1016.06 1016.03 1015.93
1000.96 1001.96 1003.04 1004.21 1005.37 1006.42 1007.57 1008.44 1009.08 1009.90 1010.67 1011.36 1012.03 1012.84 1013.44 1013.92 1014.08 1014.46 1014.94 1015.14 1015.61 1015.86 1015.92 1016.17 1016.18 1016.16 1016.15 1016.33 1016.06 1016.17 1016.06 1016.12 1015.73
1000.83 1001.93 1003.09 1004.27 1005.25 1006.15 1007.30 1008.23 1008.97 1009.76 1010.53 1011.24 1012.16 1012.93 1013.57 1013.89 1014.37 1015.09 1015.37 1015.45 1015.78 1016.02 1016.11 1016.24 1016.27 1016.18 1016.24 1016.25 1016.37 1016.23 1016.33 1016.17 1015.86
1000.85 1001.98 1003.34 1004.35 1005.24 1006.24 1007.36 1008.06 1008.58 1009.61 1010.43 1011.64 1012.46 1013.01 1013.58 1014.12 1014.83 1014.96 1015.12 1015.61 1015.89 1015.99 1016.07 1015.93 1015.99 1016.06 1016.04 1016.16 1016.40 1016.42 1016.40 1016.35 1016.26
1001.15 1002.01 1003.26 1004.37 1005.34 1006.60 1007.58 1008.32 1008.92 1009.85 1010.84 1011.61 1012.36 1012.95 1013.72 1014.41 1014.84 1014.94 1015.11 1015.29 1015.29 1015.04 1015.83 1015.84 1015.63 1015.62 1015.58 1015.66 1016.02 1016.21 1016.48 1016.49 1016.40
1002.23 1002.77 1003.71 1004.88 1005.74 1006.68 1007.94 1008.71 1009.10 1010.06 1011.09 1011.73 1012.45 1013.08 1013.59 1014.10 1014.66 1014.83 1015.07 1014.94 1014.58 1014.90 1015.24 1015.59 1015.78 1015.68 1015.46 1015.54 1015.77 1015.89 1016.05 1015.98 1015.85
1002.85 1003.75 1004.62 1005.07 1005.88 1007.10 1008.30 1009.64 1010.27 1010.67 1011.35 1011.89 1012.52 1013.26 1013.63 1014.35 1014.74 1014.64 1015.01 1014.97 1015.41 1015.38 1015.79 1015.99 1016.12 1016.08 1015.92 1015.73 1015.57 1015.75 1016.15 1016.04 1015.67
1003.97 1004.79 1005.77 1006.09 1006.75 1007.86 1008.82 1008.94 1011.49 1011.66 1011.96 1012.35 1012.76 1013.15 1013.80 1014.49 1014.42 1014.41 1014.42 1014.65 1015.31 1016.06 1015.90 1016.26 1016.43 1016.52 1016.44 1016.06 1016.15 1016.15 1016.16 1015.99 1015.82
1004.73 1005.33 1006.54 1007.40 1007.50 1008.58 1009.48 1009.43 1010.67 1011.72 1012.13 1012.59 1013.03 1013.14 1014.02 1014.18 1014.04 1014.14 1014.30 1014.62 1014.95 1014.95 1015.63 1015.91 1016.35 1016.36 1016.33 1016.27 1016.09 1015.99 1015.80 1015.45 1015.57
Wind_Speed
1 2 4 5 5 5 5 7 9 11 14 14 16 17 15 11 11 5 4 3 1 1 4 4 8 8 9 8 8 5 3 3 2
1 5 7 8 8 9 9 11 10 11 13 15 17 18 14 11 8 3 2 3 2 1 3 4 6 5 4 5 5 4 2 3 1
6 9 8 9 10 11 8 9 8 10 12 16 19 19 14 8 5 5 2 4 2 4 3 2 3 4 6 5 5 4 4 3 2
7 9 9 10 10 10 10 10 11 12 11 13 13 11 9 6 5 4 4 1 2 3 4 4 5 5 5 6 6 4 5 4 4
6 6 9 11 11 10 10 12 12 12 12 13 13 12 11 8 8 8 8 7 6 5 5 5 4 5 6 6 6 6 6 6 7
7 7 9 10 12 12 12 14 14 13 13 14 13 13 13 12 11 10 9 8 7 6 5 5 6 7 8 8 7 7 7 7 7
8 9 9 11 12 12 13 13 12 13 14 14 15 14 14 13 12 11 10 9 8 7 7 7 8 8 8 8 8 8 7 7 7
11 12 12 12 13 14 15 15 13 13 13 13 14 13 12 11 10 10 9 8 7 7 7 7 6 6 6 6 5 4 5 6 6
15 14 14 14 16 17 16 16 15 15 13 13 13 12 12 11 9 9 8 7 6 6 6 6 6 5 5 6 5 8 9 6 7
16 17 17 16 16 16 16 16 15 15 15 13 12 12 11 10 9 8 7 7 6 6 5 5 5 5 5 5 6 7 8 7 6
16 17 18 17 15 15 14 14 15 15 15 14 13 12 11 10 8 7 8 6 6 6 4 4 3 4 4 3 4 5 6 5 4
18 19 17 16 16 16 15 16 15 15 14 13 12 11 10 9 9 8 8 6 5 5 3 4 3 2 2 3 3 2 5 4 3
13 13 14 16 17 16 15 15 15 15 14 13 12 11 9 7 7 8 7 6 5 4 4 3 0 1 1 3 3 7 3 6 2
13 15 16 16 16 15 15 16 15 14 13 12 11 10 9 8 8 7 6 7 5 4 4 2 2 3 3 2 4 2 3 2 2
16 16 15 16 15 14 14 15 14 13 13 12 11 10 9 8 7 5 6 6 4 3 2 2 1 2 3 1 2 0 5 4 4
15 17 14 14 15 14 12 12 11 13 12 13 12 11 10 8 7 6 5 4 3 3 1 3 3 3 3 3 1 2 2 3 2
10 12 14 13 16 15 12 11 13 14 14 13 12 11 9 7 6 4 3 3 3 2 2 2 3 3 3 3 2 3 3 4 4
10 10 11 14 13 13 12 9 10 13 13 12 11 9 8 6 4 4 5 5 5 4 3 3 3 2 3 4 4 4 4 6 6
8 9 9 11 14 16 13 17 8 9 11 10 10 9 6 5 5 5 4 4 5 6 5 2 4 4 5 2 6 8 8 10 11
10 12 12 12 14 14 10 14 13 11 10 9 9 9 8 6 4 3 3 3 2 2 5 4 5 7 9 8 11 9 11 13 9
Wind_Direction
316 185 179 175 184 173 158 139 160 157 160 162 153 153 169 195 201 150 210 207 176 357 259 288 297 305 281 281 289 310 303 276 304
52 97 115 122 112 108 115 115 142 171 161 148 155 168 185 202 236 112 213 132 33 200 278 300 354 342 345 352 37 35 48 81 221
129 106 119 113 103 112 115 114 108 123 142 158 167 174 191 208 228 263 247 124 253 259 206 94 25 38 48 58 61 73 90 106 110
144 139 134 127 115 114 118 108 107 112 124 137 148 164 179 206 196 196 159 112 161 111 100 83 81 70 68 61 67 69 82 77 57
145 141 154 156 138 126 121 119 119 130 129 125 128 130 123 111 110 121 128 135 114 102 105 106 106 95 86 74 62 64 65 62 55
153 137 146 149 147 138 136 129 132 136 136 131 127 125 126 129 131 128 128 122 116 112 116 115 97 86 74 73 71 74 71 73 74
163 151 153 144 138 139 138 132 137 137 133 133 135 135 137 136 138 132 120 117 120 121 114 102 91 84 80 78 76 70 72 79 82
170 160 162 159 150 147 140 138 142 140 138 137 135 133 132 120 112 111 115 112 103 90 92 97 98 96 93 88 78 70 87 87 87
177 170 169 164 158 150 146 149 151 146 141 135 130 130 126 121 117 118 116 111 105 97 94 86 90 89 88 81 73 75 78 80 82
174 176 170 165 163 156 156 157 151 144 137 136 137 134 127 126 142 139 124 116 107 96 84 92 84 75 82 93 93 101 101 104 99
186 175 167 166 164 157 157 152 146 137 139 141 139 137 143 153 149 133 113 105 100 96 93 80 76 74 78 105 116 133 125 115 108
189 177 170 165 161 155 153 151 143 139 139 142 143 144 153 155 148 128 120 122 109 94 106 83 88 88 55 57 113 20 177 204 193
181 169 160 155 151 144 146 148 146 145 148 148 143 142 144 144 120 114 126 121 111 104 103 103 222 231 141 55 62 29 215 208 244
166 159 156 150 151 146 148 150 149 149 148 138 129 129 127 116 113 126 126 113 118 127 121 132 133 121 116 62 13 11 118 169 253
160 159 150 154 145 143 151 153 151 146 136 134 130 125 121 118 143 142 118 123 129 119 125 110 139 212 217 154 337 257 134 105 36
167 160 157 157 142 139 150 155 147 142 137 136 134 130 127 135 131 119 130 150 136 144 243 315 322 300 301 291 266 201 127 268 253
165 155 151 150 147 145 141 144 145 136 141 137 139 135 135 132 142 136 145 152 112 68 34 353 338 321 314 331 298 280 270 266 248
157 147 146 154 148 134 118 121 121 130 138 141 135 135 125 124 148 140 129 78 39 42 56 352 348 352 329 319 324 348 307 291 291
145 135 148 137 121 120 122 109 134 139 138 139 139 129 127 162 152 144 118 102 116 84 68 40 276 281 316 301 258 288 279 265 267
125 127 123 130 132 124 123 122 133 142 135 134 138 136 155 153 154 131 118 131 168 181 171 188 235 245 258 254 280 284 276 273 288